[[{"header":{"parameterUnit":"m.s-1","parameterCategory":1,"la1":30.2991,"la2":30.254,"lo1":-89.0895,"lo2":-89.0444,"dy":0.0017,"dx":0.0017,"nx":28,"ny":28,"refTime":"2024-06-10T03:00:00:Z","depth":0,"parameterNumber":2,"parameterNumberName":"U-component_of_WINDS"},"data":[0,0,0,0,0,0,0,0,0,0,0,0,0,0,0,0,0,0,0,0,0,0,0,0,0,0,0,0,0,0,0,0,0,0,0,0,0,0,0,0,0,0,0,0,0,0,0,0,0,0,0,0,0,0,0,0,0,0,2.5828,2.583,0,2.594,2.5941,2.5942,2.5933,2.5932,2.593,2.5929,2.6047,2.6052,2.6057,0,0,0,0,0,0,0,0,0,0,0,0,0,2.5614,2.5618,2.5828,2.583,2.5831,2.5939,2.5941,2.5943,2.5934,2.5932,2.593,2.5928,2.6046,2.6051,2.6057,0,0,0,0,0,0,0,0,0,0,0,0,0,2.5715,2.5619,2.5828,2.584,2.5842,2.5939,2.5941,2.5943,2.5934,2.5932,2.5929,2.5927,2.6044,2.6051,2.6058,2.6152,0,0,2.6079,2.6082,0,0,0,0,0,0,0,0,2.5709,2.5722,2.5837,2.5839,2.5842,2.592,2.5909,2.6013,2.5935,2.5899,2.5928,2.5926,2.6007,2.6017,2.6044,2.6158,2.6163,2.608,2.6084,2.6087,2.6089,0,0,0,0,0,0,0,2.5702,2.5718,2.5872,2.5838,2.5841,2.5841,2.5853,2.5929,2.5966,2.5902,2.5902,2.5915,2.6008,2.6037,2.6047,2.6165,2.608,2.6086,2.6091,2.6093,2.6365,2.6368,0,0,0,0,0,0,2.5691,2.5712,2.5869,2.5876,2.5767,2.5847,2.586,2.5897,2.5965,2.5973,2.5917,2.5914,2.6026,2.6038,2.6051,2.6168,2.6087,2.6094,2.6098,2.6362,2.6365,2.6369,0,0,0,0,0,0,2.5687,2.5706,2.5864,2.5794,2.5814,2.5853,2.5896,2.5901,2.593,2.5976,2.5984,2.5939,2.6025,2.6041,2.6127,2.6171,2.6097,2.6104,2.6358,2.6363,2.6367,2.6401,0,0,0,0,0,0,2.5681,2.5704,2.5739,2.5795,2.5818,2.5938,2.5898,2.5905,2.5941,2.5939,2.5999,2.6007,2.6024,2.6117,2.6134,2.618,2.6109,2.6355,2.636,2.6366,2.6396,2.6406,2.6414,0,0,0,0,0,2.5673,2.5744,2.574,2.5759,2.5862,2.594,2.5953,2.597,2.5945,2.5981,2.6012,2.6005,2.6164,2.6126,2.6145,2.6194,2.6352,2.6359,2.6365,2.6392,2.6404,2.6414,0,0,0,0,0,0,2.5693,2.5752,2.5748,2.5839,2.5885,2.5938,2.5984,2.5982,2.6037,2.6032,2.6052,2.6066,2.6154,2.6182,2.6139,2.629,2.6255,2.6266,2.6268,2.628,2.6289,2.6281,2.6115,0,0,0,0,0,2.5708,2.5765,2.5814,2.5889,2.5912,2.5945,2.5979,2.5988,2.6037,2.6057,2.6093,2.6142,2.6203,2.6243,2.6302,2.64,2.6414,2.6443,2.6452,2.646,2.6469,2.6526,2.654,2.639,2.639,2.639,0,0,2.574,2.5779,2.5814,2.5895,2.5931,2.5992,2.5961,2.6026,2.6072,2.6067,2.6151,2.618,2.6236,2.6329,2.6372,2.6356,2.6514,2.6468,2.6474,2.6479,2.6534,2.6548,2.6561,2.6395,2.6394,2.6393,0,0,2.5829,2.5863,2.5931,2.5968,2.6023,2.6044,2.6061,2.6115,2.6134,2.6219,2.6217,2.6273,2.6377,2.6418,2.6452,2.6559,2.6556,2.6578,2.6626,2.6681,2.6693,2.6703,2.6743,2.6757,2.6587,2.6587,2.6587,0,2.5862,2.5951,2.5966,2.6032,2.6069,2.6066,2.6137,2.6173,2.6245,2.6271,2.6251,2.6384,2.6421,2.6525,2.6551,2.6578,2.66,2.6571,2.6689,2.67,2.671,2.6749,2.6763,2.6589,2.6589,2.6589,2.6589,0,2.599,2.6052,2.6101,2.6169,2.6212,2.6279,2.6307,2.6348,2.6354,2.6379,2.6466,2.6511,2.658,2.6605,2.6612,2.6711,2.67,2.6684,2.6649,2.6727,2.6763,2.6778,2.6593,2.6592,2.6591,2.6591,0,0,2.6094,2.6171,2.6189,2.6221,2.6283,2.6332,2.6401,2.6467,2.6503,2.6554,2.6614,2.6703,2.669,2.6729,2.674,2.6788,2.6873,2.6768,2.677,2.6787,2.6988,2.6999,2.7016,2.6871,2.6873,2.6876,2.6983,0,2.619,2.631,2.6327,2.6434,2.6493,2.6493,2.6554,2.6599,2.6624,2.668,2.6708,2.6772,2.6748,2.6772,2.682,2.6852,2.6914,2.6845,2.6929,2.6932,2.6915,2.7035,2.7047,2.7146,2.6998,2.7,2.7002,0,2.6318,2.6371,2.6484,2.654,2.6565,2.6619,2.6682,2.6734,2.6787,2.6802,2.6847,2.6853,2.6927,2.6889,2.6992,2.6945,2.6981,2.7002,2.7007,2.7016,2.6972,2.7049,2.7178,2.7194,2.7024,2.7022,2.7021,0,2.6384,2.6485,2.6566,2.6593,2.6659,2.6698,2.6727,2.6777,2.6817,2.6873,2.6899,2.6964,2.6999,2.705,2.7074,2.7044,2.7178,2.714,2.7194,2.7194,2.7223,2.7221,2.7361,2.7244,2.7244,2.7243,2.7243,0,2.6491,2.656,2.6597,2.6647,2.6726,2.6745,2.6823,2.6852,2.6897,2.6955,2.6959,2.7013,2.7041,2.7101,2.712,2.7205,2.722,2.7236,2.7241,2.7237,2.7235,2.7261,2.7255,2.7247,2.7246,2.7246,2.7245,0,2.6579,2.6605,2.6694,2.675,2.6766,2.6821,2.687,2.692,2.6945,2.7018,2.7036,2.7076,2.7146,2.7175,2.7261,2.7275,2.7372,2.7371,2.7354,2.7356,2.7408,2.7404,2.7571,2.7595,2.7461,2.7462,2.7463,0,2.6645,2.6699,2.676,2.6798,2.6829,2.689,2.693,2.6953,2.6995,2.7061,2.7103,2.7173,2.723,2.7342,2.738,2.7447,2.7449,2.7503,2.7459,2.7453,2.7451,2.7448,2.7455,2.7511,2.7512,2.7514,2.7514,0,2.6761,2.6772,2.6829,2.6892,2.6939,2.699,2.704,2.7071,2.7102,2.7149,2.722,2.7265,2.7353,2.7423,2.7492,2.7525,2.7526,2.7528,2.7544,2.7541,2.7529,2.7538,2.7377,2.7524,2.7523,2.7523,2.7522,2.7522,2.6841,2.689,2.6941,2.7005,2.7045,2.7091,2.7141,2.7173,2.7232,2.7304,2.7315,2.7391,2.7446,2.7538,2.7574,2.7636,2.7623,2.7646,2.7652,2.7658,2.7662,2.7519,2.7649,2.7649,2.7648,2.7648,2.7648,0,2.6959,2.6992,2.7051,2.712,2.7171,2.7166,2.7221,2.7265,2.7332,2.7381,2.7438,2.7521,2.7589,2.7633,2.7703,2.7744,2.7747,2.7762,2.776,2.7768,2.7669,2.7649,2.7759,2.7759,2.7759,2.7759,2.7759,2.7759,2.7026,2.7108,2.7125,2.7228,2.7262,2.7336,2.7368,2.7412,2.7452,2.7544,2.7601,2.7628,2.7677,2.775,2.7814,2.7825,2.7851,2.7868,2.7879,2.7786,2.7774,2.7763,2.7744,2.7873,2.7873,2.7972,2.7973,2.7974]},{"header":{"parameterUnit":"m.s-1","parameterCategory":1,"la1":30.2991,"la2":30.254,"lo1":-89.0895,"lo2":-89.0444,"dy":0.0017,"dx":0.0017,"nx":28,"ny":28,"refTime":"2024-06-10T03:00:00:Z","depth":0,"parameterNumber":3,"parameterNumberName":"V-component_of_WINDS"},"data":[0,0,0,0,0,0,0,0,0,0,0,0,0,0,0,0,0,0,0,0,0,0,0,0,0,0,0,0,0,0,0,0,0,0,0,0,0,0,0,0,0,0,0,0,0,0,0,0,0,0,0,0,0,0,0,0,0,0,-0.3415,-0.3415,0,-0.3411,-0.3411,-0.3411,-0.346,-0.3462,-0.3463,-0.3464,-0.3458,-0.3456,-0.3455,0,0,0,0,0,0,0,0,0,0,0,0,0,-0.3465,-0.3464,-0.3415,-0.3415,-0.3415,-0.3411,-0.3411,-0.3411,-0.346,-0.3462,-0.3463,-0.3465,-0.3458,-0.3457,-0.3455,0,0,0,0,0,0,0,0,0,0,0,0,0,-0.3451,-0.3464,-0.3415,-0.3439,-0.3441,-0.3411,-0.3411,-0.3411,-0.346,-0.3462,-0.3464,-0.3466,-0.3459,-0.3457,-0.3455,-0.3401,0,0,-0.3448,-0.3447,0,0,0,0,0,0,0,0,-0.3451,-0.3449,-0.3436,-0.3438,-0.344,-0.3438,-0.3426,-0.3407,-0.3459,-0.3453,-0.3464,-0.3467,-0.345,-0.3448,-0.3443,-0.34,-0.34,-0.3448,-0.3447,-0.3446,-0.3445,0,0,0,0,0,0,0,-0.3452,-0.3449,-0.3414,-0.3436,-0.3438,-0.345,-0.345,-0.3423,-0.344,-0.3453,-0.3457,-0.3456,-0.3451,-0.3445,-0.3443,-0.34,-0.3448,-0.3446,-0.3445,-0.3444,-0.3314,-0.3312,0,0,0,0,0,0,-0.345,-0.345,-0.3414,-0.3414,-0.3451,-0.3447,-0.3448,-0.3437,-0.344,-0.3443,-0.3454,-0.3458,-0.3448,-0.3446,-0.3443,-0.3381,-0.3446,-0.3444,-0.3442,-0.3317,-0.3314,-0.3312,0,0,0,0,0,0,-0.3451,-0.3447,-0.3414,-0.3433,-0.3429,-0.3444,-0.3432,-0.3436,-0.343,-0.3441,-0.3444,-0.3445,-0.3449,-0.3446,-0.3411,-0.3382,-0.3443,-0.3441,-0.3319,-0.3316,-0.3313,-0.3256,0,0,0,0,0,0,-0.3452,-0.3447,-0.3426,-0.3432,-0.3428,-0.3382,-0.343,-0.3434,-0.3426,-0.3431,-0.3433,-0.3435,-0.345,-0.3414,-0.3409,-0.338,-0.3439,-0.3322,-0.3318,-0.3314,-0.3261,-0.3251,-0.3244,0,0,0,0,0,-0.3454,-0.341,-0.3425,-0.342,-0.3403,-0.3381,-0.3378,-0.3398,-0.3423,-0.3403,-0.3411,-0.3435,-0.3386,-0.341,-0.3405,-0.3374,-0.3324,-0.3319,-0.3314,-0.3265,-0.3253,-0.3244,0,0,0,0,0,0,-0.3399,-0.3411,-0.3428,-0.3384,-0.3381,-0.3389,-0.3364,-0.3385,-0.3374,-0.3379,-0.3403,-0.3403,-0.3364,-0.3366,-0.3393,-0.3323,-0.3359,-0.3353,-0.3324,-0.3313,-0.3304,-0.3305,-0.3437,0,0,0,0,0,-0.3382,-0.3363,-0.3374,-0.3335,-0.3333,-0.3348,-0.3339,-0.3354,-0.3352,-0.335,-0.3355,-0.3351,-0.3335,-0.3324,-0.331,-0.3261,-0.3263,-0.3238,-0.3229,-0.3222,-0.3216,-0.3192,-0.3182,-0.3296,-0.3296,-0.3296,0,0,-0.3347,-0.3351,-0.3337,-0.3324,-0.3323,-0.3303,-0.3347,-0.3323,-0.3309,-0.3347,-0.3315,-0.3318,-0.3315,-0.3274,-0.3256,-0.3274,-0.3185,-0.3216,-0.321,-0.3208,-0.3186,-0.3175,-0.3166,-0.3292,-0.3293,-0.3294,0,0,-0.3272,-0.3273,-0.3241,-0.3239,-0.3239,-0.325,-0.3242,-0.3247,-0.3251,-0.3219,-0.3248,-0.323,-0.3202,-0.3199,-0.3194,-0.312,-0.3142,-0.3114,-0.3069,-0.3045,-0.3036,-0.3028,-0.3003,-0.2993,-0.3109,-0.3108,-0.3108,0,-0.3228,-0.3199,-0.3221,-0.3196,-0.319,-0.3225,-0.3193,-0.319,-0.3184,-0.3179,-0.32,-0.3165,-0.3166,-0.3125,-0.3107,-0.3101,-0.3094,-0.3114,-0.3036,-0.3028,-0.3021,-0.2997,-0.2987,-0.3105,-0.3106,-0.3106,-0.3106,0,-0.3145,-0.3125,-0.3099,-0.3093,-0.3084,-0.3055,-0.3073,-0.3061,-0.3078,-0.3086,-0.3054,-0.3056,-0.3044,-0.3035,-0.305,-0.2996,-0.3008,-0.3032,-0.3068,-0.3006,-0.2984,-0.2975,-0.31,-0.3102,-0.3103,-0.3103,0,0,-0.3035,-0.3043,-0.3034,-0.3032,-0.3034,-0.3019,-0.2992,-0.2981,-0.297,-0.2965,-0.2943,-0.2919,-0.2942,-0.2936,-0.2951,-0.293,-0.2872,-0.2957,-0.2957,-0.2941,-0.2814,-0.2797,-0.2785,-0.2887,-0.2885,-0.2884,-0.2815,0,-0.2963,-0.2918,-0.2938,-0.2892,-0.2874,-0.2907,-0.2884,-0.2883,-0.289,-0.2876,-0.2884,-0.2867,-0.2898,-0.2895,-0.2875,-0.2883,-0.2847,-0.2888,-0.2867,-0.2866,-0.2867,-0.2774,-0.2755,-0.2689,-0.2806,-0.2804,-0.2803,0,-0.2872,-0.2865,-0.2817,-0.2824,-0.2817,-0.2796,-0.2788,-0.2773,-0.2773,-0.278,-0.2774,-0.2795,-0.2769,-0.2806,-0.2771,-0.2799,-0.2791,-0.2794,-0.2792,-0.2791,-0.2831,-0.2771,-0.2669,-0.2659,-0.279,-0.2791,-0.2792,0,-0.2798,-0.2776,-0.2745,-0.2742,-0.2749,-0.2734,-0.2736,-0.2737,-0.273,-0.2722,-0.2718,-0.2707,-0.2701,-0.2692,-0.2709,-0.2734,-0.2673,-0.271,-0.2678,-0.2677,-0.2664,-0.2664,-0.2559,-0.2658,-0.2658,-0.2658,-0.2658,0,-0.2716,-0.2685,-0.2712,-0.2692,-0.2659,-0.2683,-0.2649,-0.2655,-0.2656,-0.2639,-0.2666,-0.2649,-0.2673,-0.2658,-0.2671,-0.2641,-0.2638,-0.2643,-0.2647,-0.2641,-0.264,-0.2636,-0.2641,-0.2655,-0.2656,-0.2657,-0.2657,0,-0.2627,-0.2644,-0.2612,-0.2622,-0.2623,-0.2599,-0.2607,-0.2589,-0.26,-0.2577,-0.2573,-0.2589,-0.2573,-0.2589,-0.2574,-0.2583,-0.2542,-0.2553,-0.2543,-0.2546,-0.2513,-0.2516,-0.2402,-0.2389,-0.2495,-0.2494,-0.2494,0,-0.2574,-0.2551,-0.2559,-0.255,-0.2551,-0.2535,-0.2528,-0.255,-0.2541,-0.254,-0.2523,-0.2509,-0.25,-0.2473,-0.2483,-0.2471,-0.2482,-0.2443,-0.248,-0.2475,-0.2482,-0.2483,-0.2482,-0.2435,-0.2434,-0.2433,-0.2432,0,-0.2477,-0.2487,-0.2476,-0.2468,-0.2459,-0.2453,-0.245,-0.244,-0.2464,-0.2452,-0.2437,-0.243,-0.2415,-0.2402,-0.2394,-0.2395,-0.2417,-0.242,-0.2412,-0.2406,-0.2401,-0.2404,-0.2523,-0.2423,-0.2424,-0.2424,-0.2425,-0.2425,-0.2405,-0.2388,-0.2391,-0.2378,-0.2378,-0.2374,-0.2359,-0.2368,-0.2356,-0.2346,-0.236,-0.2341,-0.2342,-0.2334,-0.2333,-0.2318,-0.2335,-0.2323,-0.232,-0.2317,-0.2313,-0.2404,-0.2317,-0.2317,-0.2317,-0.2318,-0.2318,0,-0.2311,-0.2315,-0.2303,-0.2298,-0.2288,-0.2311,-0.2309,-0.2298,-0.2282,-0.2281,-0.2272,-0.2255,-0.2242,-0.2251,-0.2241,-0.2227,-0.2237,-0.2224,-0.2225,-0.2225,-0.2298,-0.2306,-0.2216,-0.2216,-0.2216,-0.2216,-0.2216,-0.2216,-0.2261,-0.2233,-0.2243,-0.2215,-0.2219,-0.2201,-0.2198,-0.2195,-0.2195,-0.2175,-0.2165,-0.2172,-0.2175,-0.2165,-0.2155,-0.2158,-0.2153,-0.2136,-0.2143,-0.221,-0.222,-0.223,-0.2238,-0.2135,-0.2134,-0.2071,-0.2071,-0.207]}]]